Regional Weather Roundup
Issued by NWS

Home | Current Version | Previous Version | Text Only | Print | Product List | Glossary On
Versions: 1 2 3 4 5 6 7 8 9 10 11 12 13 14 15 16 17 18 19 20 21 22 23 24 25 26 27 28 29 30 31 32 33 34 35 36 37 38 39 40 41 42 43 44 45 46 47 48 49 50
000
ASUS44 KEWX 311811
RWRTX
SOUTH TEXAS REGIONAL WEATHER ROUNDUP
NATIONAL WEATHER SERVICE AUSTIN/SAN ANTONIO TX
100 PM CDT FRI JUL 31 2015

NOTE: "FAIR" INDICATED FEW OR NO CLOUDS BELOW 12,000 FEET WITH NO
SIGNIFICANT WEATHER AND/OR OBSTRUCTIONS TO VISIBILITY.

* - THESE STATIONS ARE NOT NWS OR FAA STATIONS...AND ARE NOT SUBJECT
    TO NWS AND FAA QUALITY CONTROL.

TXZ171-172-183>190-311900-
TEXAS HILL COUNTRY AND EDWARDS PLATEAU

CITY           SKY/WX    TMP DP  RH WIND       PRES   REMARKS
JUNCTION       MOSUNNY   96  62  32 VRB5      30.09F HX  97
6HR MIN TEMP:  71; 6HR MAX TEMP:  97;

*LLANO         SUNNY     99  63  30 E5        30.08F HX 100
BURNET         MOSUNNY   97  64  33 NE7       30.09F HX  99
6HR MIN TEMP:  78; 6HR MAX TEMP:  99;

*HORSESHOE BAY MOSUNNY   97  64  32 NE8       30.06F HX  99
6HR MIN TEMP:  75; 6HR MAX TEMP:  98;

*KERRVILLE     NOT AVBL
*FREDERICKSBRG NOT AVBL
*ROCKSPRINGS   MOSUNNY   91  63  38 CALM      30.16F HX  92
*BOERNE STAGE  MOSUNNY   91  63  38 N6        30.08F HX  92
*CASTROVILLE   MOSUNNY   98  63  31 E6        30.05F HX  99
HONDO          MOSUNNY   97  68  38 MISG      30.06F HX 102
6HR MIN TEMP:  74; 6HR MAX TEMP:  97;

*UVALDE        MOSUNNY   94  70  45 S5        30.05F HX  99
6HR MIN TEMP:  72; 6HR MAX TEMP:  94;

DEL RIO        SUNNY     97  64  33 SE7       30.04F HX  99
6HR MIN TEMP:  76; 6HR MAX TEMP:  97;

LAUGHLIN AFB   SUNNY     96  66  36 SE7       30.04F HX  99
6HR MIN TEMP:  73; 6HR MAX TEMP:  96;

CARRIZO SPRGS  MOSUNNY   95  68  41 N3        30.02F HX  99
$$

TXZ173-191>194-202-209-217>225-228-311900-
CENTRAL AND SOUTH CENTRAL TEXAS

CITY           SKY/WX    TMP DP  RH WIND       PRES   REMARKS
GEORGETOWN     SUNNY     99  66  34 N13G20    30.03F HX 102
AUSTIN/BERGSTM MOSUNNY   97  69  40 N12       30.02F HX 103
6HR MIN TEMP:  77; 6HR MAX TEMP:  98;

AUSTIN/MABRY   MOSUNNY   99  68  36 N8        30.03F HX 104
6HR MIN TEMP:  80; 6HR MAX TEMP: 100;

*AUSTIN/EXEC   MOSUNNY   97  70  41 CALM      30.03F HX 103
*LAGO VISTA    MOSUNNY   98  63  31 NE9       30.07F HX  99
6HR MIN TEMP:  81; 6HR MAX TEMP:  99;

SAN MARCOS     SUNNY     97  70  41 E3        30.03F HX 103
NEW BRAUNFELS  SUNNY    100  68  35 VRB7      30.02F HX 105
6HR MIN TEMP:  79; 6HR MAX TEMP: 100; 6HR PCP: TRACE;

RANDOLPH AFB   MOSUNNY   95  67  39 VRB7      30.03F HX  99
6HR MIN TEMP:  80; 6HR MAX TEMP:  95;

PT SAN ANTONIO MOSUNNY   96  67  38 SE7       30.02F HX 100
6HR MIN TEMP:  79; 6HR MAX TEMP:  97;

SAN ANTONIO    PTSUNNY   95  67  39 E9        30.04F HX  99
6HR MIN TEMP:  80; 6HR MAX TEMP:  96; 6HR PCP: TRACE;

STINSON FIELD  SUNNY     96  68  39 E8        30.01F HX 101
6HR MIN TEMP:  80; 6HR MAX TEMP:  98;

*PLEASANTON    SUNNY     97  65  34 S5        30.03F HX  99
6HR MIN TEMP:  74; 6HR MAX TEMP:  97;

*LA GRANGE     MOSUNNY   97  74  48 NE5       29.99F HX 109
6HR MIN TEMP:  80; 6HR MAX TEMP:  97;

*GIDDINGS      MOSUNNY   96  70  43 NE3       30.05F HX 103
6HR MIN TEMP:  77; 6HR MAX TEMP:  96;

*GONZALES      MOSUNNY   97  70  41 N3        30.00F HX 103
6HR MIN TEMP:  78; 6HR MAX TEMP:  98;

$$

TXZ163>164-176>182-195>201-210>213-226-227-235-311900-
SOUTHEAST TEXAS

CITY           SKY/WX    TMP DP  RH WIND       PRES   REMARKS
COLLEGE STN    MOSUNNY   95  73  48 NE9       30.02F HX 104
6HR MIN TEMP:  79; 6HR MAX TEMP:  95;

*BRYAN         MOSUNNY   95  74  51 N8        30.03F HX 106
6HR MIN TEMP:  76; 6HR MAX TEMP:  95;

*CALDWELL      MOSUNNY   93  72  49 N8        30.05F HX 100
*CROCKETT      MOSUNNY   93  73  52 E8        30.08S HX 102
*BRENHAM       MOSUNNY   94  76  55 NE6       30.02F HX 105
6HR MIN TEMP:  79; 6HR MAX TEMP:  94;

HUNTSVILLE     MOSUNNY   92  73  53 E6        30.04F HX 100
6HR MIN TEMP:  77; 6HR MAX TEMP:  93;

CONROE         SUNNY     95  71  45 N8        30.02F HX 102
6HR MIN TEMP:  77; 6HR MAX TEMP:  95;

HOUSTON BUSH   MOSUNNY   95  74  50 NE9G17    30.00F HX 105
6HR MIN TEMP:  78; 6HR MAX TEMP:  95;

HOUSTON HOBBY  MOSUNNY   96  73  47 NE12      29.98F HX 105
6HR MIN TEMP:  81; 6HR MAX TEMP:  96;

*HOUSTON SW AP MOSUNNY   96  74  50 NE8       29.99F HX 106
6HR MIN TEMP:  76; 6HR MAX TEMP:  96;

PEARLAND       MOSUNNY   95  74  50 N8G17     30.00F HX 105
6HR MIN TEMP:  81; 6HR MAX TEMP:  97;

HOUSTON HOOKS  SUNNY     94  74  52 VRB7      30.00F HX 104
6HR MIN TEMP:  80; 6HR MAX TEMP:  94;

ELLINGTON FLD  NOT AVBL
SUGAR LAND     MOSUNNY   97  74  47 N9        29.98F HX 108
6HR MIN TEMP:  77; 6HR MAX TEMP:  97;

*HOUSTON EXEC  MOSUNNY   93  75  55 N7        30.01F HX 104
*CLEVELAND MUN MOSUNNY   94  77  58 N3        30.02F HX 107
6HR MIN TEMP:  76; 6HR MAX TEMP:  94;

*WHARTON       SUNNY     95  74  50 N5        29.98F HX 106
6HR MIN TEMP:  77; 6HR MAX TEMP:  95;

*COLUMBUS      FAIR      95  75  51 N8        29.99F HX 106
6HR MIN TEMP:  77; 6HR MAX TEMP:  95;

*EAGLE LAKE    PTCLDY    95  74  50 N9        29.98F HX 106
6HR MIN TEMP:  79; 6HR MAX TEMP:  96;

$$

TXZ214>216-236>238-311900-
THE UPPER TEXAS COAST

CITY           SKY/WX    TMP DP  RH WIND       PRES   REMARKS
*ORANGE        SUNNY     93  61  34 NE6       30.01S HX  92
6HR MIN TEMP:  76; 6HR MAX TEMP:  93;

PORT ARTHUR    SUNNY     95  75  52 VRB7G17   29.98F HX 107
6HR MIN TEMP:  79; 6HR MAX TEMP:  95;

GALVESTON      SUNNY     93  77  59 N10       30.00F HX 107
6HR MIN TEMP:  84; 6HR MAX TEMP:  93;

ANGLETON       MOSUNNY   97  74  47 NE9       29.98F HX 108
6HR MIN TEMP:  79; 6HR MAX TEMP:  98;

*BAY CITY      MOSUNNY   96  71  43 NW5       29.97F HX 103
PALACIOS       SUNNY     97  71  42 NW9       29.98F HX 104
6HR MIN TEMP:  79; 6HR MAX TEMP:  98;

$$

TXZ229>234-239>247-311900-
TEXAS COASTAL BEND AND RIO GRANDE PLAINS

CITY           SKY/WX    TMP DP  RH WIND       PRES   REMARKS
VICTORIA       SUNNY     96  71  44 VRB3      30.00F HX 103
6HR MIN TEMP:  76; 6HR MAX TEMP:  96;

*BEEVILLE      SUNNY     94  75  53 NE3       30.01F HX 105
6HR MIN TEMP:  76; 6HR MAX TEMP:  94;

ROCKPORT       SUNNY     95  70  44 NW6       29.98F HX 101
6HR MIN TEMP:  79; 6HR MAX TEMP:  95;

*PORT ARANSAS  SUNNY     89  76  65 SE6       30.00S HX 100
6HR MIN TEMP:  80; 6HR MAX TEMP:  91;

*PORT LAVACA   SUNNY     96  72  45 NW9       29.99F HX 104
6HR MIN TEMP:  77; 6HR MAX TEMP:  96;

*INGLESIDE     MOSUNNY   96  73  46 SE5       29.99S HAZE    HX 106
CORPUS CHRISTI PTSUNNY   96  67  38 VRB5      29.99F HX 100
6HR MIN TEMP:  76; 6HR MAX TEMP:  96;

CORPUS NAS     PTSUNNY   91  72  53 VRB6      29.99F HX  98
*ROBSTOWN      SUNNY     96  71  43 N6        30.00F HX 103
6HR MIN TEMP:  75; 6HR MAX TEMP:  96;

ALICE          SUNNY     96  70  42 CALM      30.00F HX 102
6HR MIN TEMP:  76; 6HR MAX TEMP:  97;

KINGSVILLE NAS PTSUNNY   95  73  48 SE3       30.00F HX 104
6HR MIN TEMP:  75; 6HR MAX TEMP:  96;

COTULLA        MOSUNNY   98  68  37 E8        30.02F HX 103
6HR MIN TEMP:  77; 6HR MAX TEMP:  98;

*FAITH RANCH     N/A     99  68  36 VRB6G14   30.03F HX 104
LAREDO         MOSUNNY   99  67  35 E9        30.02F HX 103
6HR MIN TEMP:  79; 6HR MAX TEMP:  98;

$$

TXZ248>255-311900-
DEEP SOUTH TEXAS

CITY           SKY/WX    TMP DP  RH WIND       PRES   REMARKS
BROWNSVILLE    CLOUDY    89  70  53 VRB3      30.01F HX  94
6HR MIN TEMP:  75; 6HR MAX TEMP:  91;

PORT ISABEL    CLOUDY    87  72  60 E6        30.01S HX  93
6HR MIN TEMP:  73; 6HR MAX TEMP:  88;

*SOUTH PADRE   CLOUDY    82  77  83 E3        30.02S HX  91
HARLINGEN      CLOUDY    93  69  45 CALM      29.99F HX  98
6HR MIN TEMP:  73; 6HR MAX TEMP:  94;



USA.gov is the U.S. government's official web portal to all federal, state and local government web resources and services.